Dewpoint
61 58 58 58 56 55 51 47 34 33 27 21 19 23 20 26 27 24 25 26 25 25 29 33 34 34 33 34 36 38 38 36 37 36 33 40 48 50 51 52 53 53 54 55 57 59 59 64 65 67 67 67 67 68 68 69 69 69 69 69 70 70 71 70 70 70 70 71 71 71 71 71 71 70 69 70 70 69 69 69 71 71 71 70 69 69 69 68 67 67 68 67 67 69 69 70 71
58 57 56 55 52 49 47 43 32 27 25 22 20 22 20 24 23 22 21 27 28 29 32 32 34 35 36 37 37 35 36 39 41 40 44 47 49 46 50 51 52 51 51 50 51 54 55 59 63 64 66 67 67 67 68 69 69 69 69 69 69 70 70 70 69 70 70 70 70 70 70 70 69 69 69 70 70 69 70 70 71 71 70 70 70 69 69 68 68 68 67 67 67 69 69 70 70
58 56 53 54 51 50 47 40 28 25 21 17 20 21 22 22 22 23 24 23 27 28 30 31 32 32 30 31 33 33 34 38 39 42 44 47 44 43 49 51 50 47 48 48 49 51 54 59 62 63 64 64 65 66 67 67 69 69 69 69 69 69 69 69 70 70 70 70 71 71 70 70 70 70 69 69 70 70 70 70 70 70 69 69 69 69 68 68 68 68 68 67 67 69 68 69 69
55 56 53 52 47 44 40 34 28 22 22 21 18 22 21 22 23 24 26 25 27 28 28 30 31 32 32 32 31 35 35 37 40 43 44 43 45 48 50 48 47 41 41 44 45 48 54 60 61 62 62 63 63 64 64 65 66 67 67 69 69 68 69 69 69 69 70 69 70 70 71 70 69 69 69 70 70 70 70 69 70 70 69 69 69 69 69 68 68 68 68 68 67 69 69 68 68
54 56 53 50 43 33 34 30 26 25 19 20 18 22 30 26 23 25 25 26 25 24 30 31 28 31 33 33 36 33 34 38 39 42 44 46 48 48 48 45 39 37 39 39 41 45 51 59 58 60 61 62 62 62 62 63 63 64 65 65 66 67 68 68 69 69 69 69 69 69 70 70 69 69 69 68 69 69 70 70 70 70 69 69 69 69 70 69 69 69 68 68 68 69 70 70 70
49 51 51 49 38 40 29 20 21 19 22 23 19 18 23 25 22 24 24 26 28 28 29 29 26 29 29 30 34 31 35 35 40 41 45 41 46 48 47 43 33 34 36 37 39 41 49 55 55 57 59 59 60 60 61 62 62 62 62 63 63 65 66 66 68 68 68 69 69 68 68 69 69 68 68 68 68 68 68 70 70 70 70 70 69 69 69 69 69 69 69 69 69 69 70 70 70
45 43 41 39 38 36 27 23 19 20 19 24 23 21 22 24 22 23 24 24 27 30 31 28 30 30 30 33 30 36 38 39 40 39 44 44 46 45 46 34 33 33 34 35 36 40 47 53 53 53 54 55 56 57 58 59 59 59 60 61 62 62 62 63 63 65 66 68 68 68 68 68 68 69 68 68 68 68 69 68 68 69 70 70 69 69 70 69 69 69 69 69 70 70 71 71 70
48 38 38 32 32 31 24 25 21 26 19 23 23 22 22 22 22 22 22 22 22 28 30 31 31 27 28 33 28 33 36 38 38 42 45 44 42 42 42 35 32 33 34 34 35 38 49 51 52 51 52 53 53 54 56 56 55 55 56 58 59 59 60 61 62 62 62 63 64 66 67 68 68 68 68 68 69 68 68 68 68 68 68 70 70 69 69 70 69 69 68 69 68 70 70 71 71
43 41 40 33 27 30 23 20 20 25 23 23 20 29 40 22 22 21 21 23 26 28 30 29 28 24 27 28 30 33 33 38 39 43 42 41 40 39 39 38 34 35 36 34 34 37 40 48 50 50 50 50 51 52 54 55 54 53 54 55 56 57 57 57 58 59 60 62 63 63 64 64 65 67 68 67 67 67 68 68 68 68 68 67 67 70 70 70 69 69 68 68 69 70 70 70 70
38 36 31 29 31 23 23 20 20 20 21 22 21 20 21 22 21 21 25 27 27 29 29 30 30 24 28 26 29 30 31 36 38 37 39 41 40 38 37 38 39 37 34 34 35 36 38 45 47 48 47 48 49 49 52 53 52 52 52 53 54 55 55 56 56 56 58 59 60 61 62 63 63 64 66 67 67 67 67 67 67 68 68 68 67 67 69 69 69 69 69 68 68 69 69 70 70
30 39 38 27 24 22 22 20 23 20 19 21 21 21 21 22 20 20 24 27 26 28 28 29 28 28 26 28 29 34 35 34 34 34 38 39 38 38 31 38 38 38 33 36 36 35 33 35 44 46 45 46 47 47 48 51 51 50 50 51 52 52 53 54 54 54 54 55 55 56 58 61 62 63 64 66 67 67 66 67 67 67 66 67 68 67 68 69 68 69 68 69 69 69 69 70 70
27 33 34 27 21 20 22 21 23 21 22 23 20 21 21 21 20 19 21 23 25 27 26 29 27 28 27 29 27 28 31 29 34 35 38 37 31 35 36 33 38 36 38 33 34 33 33 31 33 42 43 44 44 44 45 47 48 48 48 49 50 51 51 52 53 51 51 51 53 55 57 58 60 61 62 62 65 66 66 67 67 67 66 66 68 68 68 68 69 69 68 68 69 69 69 70 70
30 35 29 27 24 21 21 21 20 31 23 20 20 21 22 20 21 19 22 24 24 24 25 26 28 28 27 29 29 32 23 29 34 36 36 30 32 32 34 31 38 37 36 36 30 32 35 29 29 34 39 40 41 42 42 44 45 45 46 47 47 48 49 50 50 49 49 49 51 53 55 55 56 58 60 61 62 62 63 64 65 66 67 66 67 66 68 67 68 68 69 69 69 69 70 70 69
33 35 29 24 29 23 21 21 23 19 18 20 23 23 23 21 21 23 23 23 24 24 25 27 28 28 26 24 26 26 25 30 31 35 32 33 33 31 34 31 35 32 35 33 29 29 31 31 29 30 31 29 30 36 40 42 44 42 43 43 44 45 46 47 47 46 46 46 47 50 52 52 53 55 56 57 58 60 61 63 63 64 65 66 66 66 67 67 67 67 68 69 69 69 69 69 69
30 38 33 30 29 18 20 19 22 23 19 21 21 21 23 27 26 27 22 24 24 27 27 27 31 26 21 22 21 26 26 30 33 34 33 32 32 29 33 31 30 32 29 29 29 28 29 32 28 28 31 29 29 30 30 32 43 43 41 41 42 42 43 43 43 43 43 43 45 47 49 49 48 48 50 52 55 58 59 60 61 63 63 64 65 66 66 66 67 67 67 68 68 68 69 68 68
37 37 32 26 24 20 19 23 26 22 20 21 23 23 23 25 26 25 26 25 26 29 26 23 26 25 26 22 26 24 26 30 33 33 28 30 29 31 26 26 24 27 28 28 27 28 28 31 31 28 30 30 29 31 30 29 39 42 40 41 41 41 42 42 42 42 42 42 43 46 48 45 45 43 48 48 54 56 57 58 59 61 62 63 63 64 64 65 66 66 66 67 68 68 68 68 68
42 38 28 28 23 20 18 20 22 18 22 23 23 20 21 23 25 24 22 23 21 21 22 23 25 26 25 24 27 26 27 39 40 31 31 29 25 21 24 23 27 24 29 26 27 27 25 29 31 29 30 31 30 32 33 31 35 40 37 39 39 40 41 41 41 40 42 39 40 43 43 38 36 36 39 44 51 52 54 54 54 53 59 60 61 62 63 63 64 65 65 65 66 67 66 65 64
37 28 28 23 23 18 22 21 23 23 20 19 19 21 23 22 24 22 23 19 19 20 20 22 22 24 27 30 32 30 31 28 31 29 27 25 27 21 21 21 20 21 24 26 26 27 26 26 31 31 29 31 30 35 35 33 33 35 30 30 32 34 38 41 34 34 39 30 40 36 37 35 33 33 36 47 47 48 48 48 48 49 52 53 53 56 59 62 63 64 65 65 65 65 65 65 65
32 29 26 19 26 20 23 20 24 19 19 18 20 22 21 22 23 23 20 20 19 18 19 20 20 22 23 25 27 27 28 28 29 26 25 25 23 23 25 24 21 20 23 25 24 27 28 25 29 31 31 31 30 30 35 32 28 29 30 30 31 35 34 33 30 30 29 29 31 33 35 33 33 32 34 42 45 46 43 46 45 47 51 52 52 53 55 60 61 63 63 64 64 63 64 65 65
34 21 17 23 28 22 22 20 21 20 20 19 19 20 20 22 23 23 21 19 21 18 18 19 19 20 21 24 25 26 26 29 30 25 23 25 25 22 20 24 18 21 23 28 28 31 29 26 27 30 33 31 30 29 33 27 29 29 29 30 29 28 29 30 28 28 28 29 30 31 31 32 32 30 40 41 41 37 37 41 44 48 50 50 51 52 55 55 57 60 61 62 62 61 64 65 65
28 22 18 23 29 21 20 21 22 22 20 19 19 21 20 22 21 22 21 20 20 20 19 18 18 19 21 23 26 26 25 26 28 29 27 28 28 28 20 22 21 21 25 30 30 28 27 28 27 27 32 31 30 28 28 26 30 28 29 29 30 28 30 29 27 26 27 28 28 29 31 31 30 29 30 32 33 33 33 32 36 43 45 45 48 49 52 53 56 58 60 61 62 62 63 64 65
26 18 23 26 25 21 21 22 24 22 23 20 19 18 20 22 22 22 21 19 19 20 20 19 19 20 20 22 24 24 21 23 22 25 26 26 25 21 20 21 25 29 31 22 25 24 25 28 27 28 32 30 29 29 28 30 28 27 27 29 29 26 30 26 25 25 25 27 28 30 29 28 28 28 28 29 30 31 31 31 35 41 42 43 46 47 49 51 54 57 59 60 61 62 62 63 65
20 21 21 28 21 20 21 23 24 18 19 19 18 19 21 20 21 22 21 19 21 23 21 20 19 20 21 21 24 23 22 22 23 25 27 27 28 28 24 23 22 20 26 23 26 23 30 25 26 26 28 29 27 27 25 26 25 27 27 31 28 26 23 22 22 22 24 27 28 29 29 28 28 27 27 27 28 29 29 30 34 39 39 42 44 44 45 48 51 54 57 58 59 60 61 62 63
21 18 21 22 23 20 22 22 25 21 17 17 18 22 20 20 20 21 21 20 20 21 20 20 21 21 22 22 20 19 20 21 21 23 26 25 27 27 28 23 21 25 25 24 25 26 28 24 24 22 26 29 26 25 23 23 24 25 27 30 24 30 23 21 21 22 26 23 26 26 30 28 27 26 25 26 27 27 28 29 32 35 38 41 42 42 43 45 48 52 52 54 56 58 59 60 61
22 21 26 23 23 21 24 21 21 20 16 20 21 20 20 20 20 20 20 19 20 20 20 21 21 20 20 20 20 22 22 25 23 25 29 27 29 31 30 32 31 26 22 22 25 25 24 30 24 20 24 25 25 24 23 24 24 24 25 25 23 34 20 20 21 21 20 23 24 26 29 27 26 24 24 25 25 26 27 27 29 31 35 39 40 40 41 43 46 48 49 50 53 55 57 58 59
27 23 23 23 21 22 22 21 21 18 17 20 17 18 21 21 22 19 19 18 19 20 20 20 18 18 18 19 20 22 22 24 25 26 24 25 29 25 23 26 28 22 23 22 24 23 23 26 22 22 25 27 28 24 24 24 24 24 25 25 23 27 20 21 21 19 19 20 21 25 27 28 25 24 23 23 23 24 25 26 27 28 31 36 39 38 39 41 43 44 45 47 50 53 56 57 58
25 26 25 20 20 19 21 19 19 20 16 18 18 19 20 21 22 18 18 17 19 19 19 18 16 16 16 17 20 21 21 22 22 23 27 26 25 23 23 26 26 22 28 23 22 23 32 24 24 24 24 31 30 24 26 24 25 23 28 25 24 22 22 21 19 19 20 19 21 25 25 25 24 23 21 21 22 23 23 23 24 26 30 33 35 36 38 39 39 41 43 46 49 53 55 57 58
24 21 19 19 18 20 20 20 19 17 15 18 16 19 22 20 23 17 17 17 18 17 17 16 15 14 14 15 17 21 18 22 20 24 21 22 18 20 17 20 21 23 24 19 22 25 24 23 22 25 25 26 30 23 28 25 24 26 29 23 23 23 23 20 19 19 22 20 24 24 24 22 23 20 19 20 21 20 20 20 21 24 27 31 34 34 35 37 38 40 42 43 45 48 51 53 56
22 18 16 17 20 18 19 19 19 17 16 18 21 18 18 21 19 21 17 17 18 17 16 16 15 14 15 16 16 19 16 17 21 20 20 18 17 25 14 20 24 21 23 23 21 26 20 23 27 26 26 26 25 22 24 23 24 24 25 24 24 27 19 19 18 18 18 20 20 20 19 19 19 18 18 18 21 18 18 19 19 22 25 30 32 34 35 36 37 39 40 41 43 45 48 50 52
21 18 17 16 20 18 19 21 19 16 16 19 14 11 12 16 19 18 17 16 16 16 15 15 16 15 16 16 16 18 17 20 19 19 20 21 21 19 13 14 26 22 21 26 24 20 27 30 30 30 31 26 29 25 28 23 23 24 26 23 25 21 19 18 20 18 19 17 18 18 18 18 19 17 18 18 18 18 18 18 19 20 23 27 30 33 34 35 36 37 38 40 42 43 45 47 49
18 19 24 20 18 19 19 20 18 16 22 20 14 14 13 14 16 19 17 16 16 15 15 15 16 16 16 16 17 16 16 18 17 17 22 22 19 20 14 16 20 22 27 24 20 19 25 25 31 29 30 27 25 24 25 25 25 23 22 23 20 21 19 17 17 17 16 16 16 15 18 19 19 19 19 20 19 18 17 17 18 20 23 26 29 32 34 35 36 36 37 38 39 41 43 44 45
25 17 20 24 18 21 23 23 17 16 18 17 15 16 14 15 15 18 16 16 15 15 15 15 15 15 15 15 16 15 16 17 19 20 20 18 19 14 15 13 17 20 20 18 22 28 22 22 29 25 26 24 24 27 25 23 21 22 22 27 22 23 17 17 16 16 16 16 15 15 16 18 20 19 20 20 16 15 15 16 17 20 24 27 30 32 35 36 36 36 36 38 38 39 41 41 43
23 18 20 20 21 21 14 18 20 20 19 19 16 16 15 15 16 17 16 15 15 15 15 15 14 14 14 14 14 15 15 15 21 21 22 20 15 11 12 12 14 17 18 22 19 22 23 22 26 27 24 24 23 21 24 22 22 22 20 20 19 19 17 16 16 16 16 15 14 15 17 19 19 18 18 17 16 16 16 16 16 17 20 26 30 32 34 36 36 37 36 36 38 38 39 39 39
18 22 15 23 14 15 14 16 12 23 18 17 18 16 16 16 18 17 17 15 14 14 14 15 14 14 13 14 14 15 14 14 16 16 18 19 16 15 11 25 18 19 18 27 21 20 19 23 25 28 28 25 25 24 24 21 21 23 21 19 25 17 17 16 17 16 16 16 15 16 18 18 19 17 17 17 16 17 17 16 15 16 18 19 23 26 30 33 35 36 36 35 35 36 36 37 38
15 17 16 16 16 17 14 15 11 17 19 17 17 17 17 17 18 17 17 15 14 14 14 14 14 14 14 14 14 14 14 15 15 13 16 18 18 17 16 20 17 21 17 17 17 21 23 23 29 25 28 24 23 22 23 22 21 20 20 20 20 19 17 19 19 16 19 15 15 18 18 17 17 17 17 17 15 15 15 15 15 16 18 19 21 23 27 31 34 35 36 35 34 34 36 38 39
12 14 16 16 13 14 13 13 13 15 10 11 15 15 12 13 13 17 17 16 14 14 14 14 14 14 14 14 14 14 15 14 16 15 18 17 18 18 17 19 21 22 20 16 26 21 21 23 25 23 24 23 23 21 21 20 19 19 16 16 16 16 15 19 18 17 15 15 18 18 16 16 16 17 16 16 15 15 15 15 15 18 19 20 21 22 25 29 33 34 34 34 34 34 36 38 39
15 18 17 13 15 14 14 14 15 18 16 13 12 12 13 13 13 14 17 16 15 14 14 14 14 14 14 14 13 14 14 13 19 18 18 18 20 19 18 19 20 20 19 18 17 21 21 21 24 21 23 24 22 20 20 19 16 16 16 16 14 14 15 18 16 15 15 16 18 17 16 15 16 16 17 16 15 16 16 16 17 18 17 18 19 19 21 23 27 31 33 34 35 36 36 36 39
15 16 17 14 19 13 14 14 16 18 16 16 17 17 16 15 16 17 17 16 15 14 14 13 14 14 14 13 13 14 14 19 21 19 18 19 19 21 20 19 28 11 14 20 18 19 21 22 21 22 24 22 22 22 21 20 20 19 18 16 16 16 14 14 14 14 16 21 18 16 16 15 16 15 16 15 15 15 15 17 16 17 17 16 18 20 21 25 26 29 33 35 36 37 35 35 38
18 16 17 17 16 18 17 19 22 18 19 16 16 16 16 16 16 17 17 17 16 16 15 14 14 14 14 14 13 13 14 14 17 15 16 15 19 19 17 20 20 15 15 19 20 21 22 22 22 23 23 22 22 24 22 18 20 21 19 17 16 15 17 17 16 18 18 18 16 16 17 16 15 14 15 15 15 16 15 16 16 16 16 18 18 18 20 22 25 28 31 34 35 36 36 37 39
16 17 16 17 20 18 18 18 24 22 18 19 18 18 18 18 18 18 18 17 17 18 17 17 16 14 14 13 12 13 13 13 15 12 11 12 13 13 14 16 18 21 23 20 20 21 23 27 22 22 23 22 22 23 25 21 22 22 20 19 17 17 14 19 18 16 16 16 14 16 15 14 15 14 14 14 15 14 15 16 15 16 16 17 18 17 19 21 24 27 31 34 36 35 36 35 38
21 20 19 18 19 18 18 16 21 19 20 22 16 15 15 17 16 17 16 19 17 17 17 17 18 19 17 18 16 14 12 12 13 11 11 10 12 10 10 15 19 17 19 20 21 23 22 21 22 22 21 21 21 25 21 22 22 18 17 16 18 17 16 15 13 13 13 14 14 12 12 14 15 14 14 14 15 15 15 15 16 15 15 16 16 16 16 18 20 24 31 34 36 36 36 36 36
21 23 20 20 20 19 20 22 19 18 18 17 15 16 15 16 17 17 18 14 15 16 15 15 15 16 16 14 13 14 18 13 12 11 10 11 9 10 12 17 18 18 20 21 22 23 22 22 23 23 23 22 21 22 22 23 18 16 15 13 12 12 12 12 11 11 11 11 12 12 13 13 13 13 13 14 14 16 15 15 16 15 14 16 16 14 15 17 20 27 33 36 37 38 39 38 36
20 22 23 22 21 21 21 20 19 16 13 16 18 14 16 13 15 16 16 15 14 14 15 15 15 15 15 14 14 13 14 12 9 11 11 10 10 10 12 15 17 17 17 22 23 23 23 22 23 24 21 22 24 21 21 23 17 17 15 14 14 13 13 13 13 13 13 12 13 12 12 12 13 13 12 13 14 14 15 15 15 14 14 13 14 13 14 17 19 22 29 35 37 38 39 37 37
19 23 25 23 22 20 20 18 18 17 21 20 17 15 12 14 14 15 14 13 12 12 13 14 15 15 14 14 14 13 13 11 10 9 10 9 10 10 10 12 17 15 20 22 21 23 22 21 22 23 22 23 21 21 21 20 18 17 16 14 16 15 13 12 12 12 13 14 12 11 11 11 11 12 13 12 13 13 14 15 14 13 12 11 13 14 16 16 19 24 32 36 37 38 38 38 38
22 24 20 18 18 18 19 17 16 19 14 15 16 17 11 13 15 15 15 14 13 13 12 13 14 14 14 14 14 13 12 11 9 10 10 9 9 11 12 14 16 18 20 19 21 22 22 23 24 24 21 21 19 20 22 19 20 19 16 15 13 14 14 15 14 13 12 11 11 11 10 10 10 11 12 13 13 13 15 13 12 11 11 12 15 15 14 15 16 19 25 30 36 36 37 38 39
24 24 23 24 23 22 20 17 17 16 12 17 18 16 12 16 18 14 15 13 13 14 14 13 13 14 14 14 14 13 11 9 10 9 8 9 10 12 15 15 17 18 20 24 25 23 22 23 23 25 20 19 19 19 18 17 17 19 15 14 13 13 13 12 11 10 10 10 10 9 10 10 10 10 11 12 12 12 12 12 12 11 11 11 14 12 13 13 16 19 24 33 35 35 36 37 38
24 24 21 22 22 20 20 19 18 12 8 18 19 16 15 15 17 17 16 18 16 16 14 13 14 14 14 13 13 13 10 9 10 9 9 9 12 13 17 15 16 19 21 21 21 21 22 23 22 21 19 19 18 18 18 17 16 17 15 14 14 13 12 11 10 9 9 9 8 9 9 10 10 10 10 11 11 11 11 13 12 11 11 13 12 10 10 11 12 20 27 30 33 35 36 37 37
22 19 17 21 22 16 12 8 14 9 13 14 16 17 15 13 15 18 16 17 14 15 16 14 13 13 13 13 13 11 8 9 10 8 8 9 12 15 17 15 17 17 18 18 20 21 23 23 22 20 19 18 18 19 18 17 17 16 16 15 14 13 11 11 9 8 8 8 8 8 8 8 8 10 10 10 10 10 12 11 13 11 10 10 9 9 9 11 11 13 13 20 31 34 34 34 35
21 20 18 15 16 14 15 5 5 8 13 14 12 16 14 13 16 17 17 15 15 15 14 15 15 13 13 13 13 10 9 9 10 9 10 11 12 13 15 15 17 17 17 18 19 20 22 22 21 19 17 17 17 17 17 16 15 14 14 14 13 13 12 10 8 8 8 8 8 7 7 8 9 9 9 9 9 10 11 10 10 10 9 9 10 9 10 11 10 11 12 18 28 29 29 31 32
19 18 17 14 12 9 10 10 5 11 13 17 9 13 13 14 15 18 17 17 17 17 16 16 16 14 12 13 12 9 9 9 9 10 11 12 14 15 16 16 17 18 18 19 19 22 22 22 20 18 17 17 17 17 16 15 15 14 14 13 12 11 9 9 8 8 8 8 9 9 8 8 8 8 9 9 9 10 11 11 10 9 9 9 9 9 10 11 12 11 13 17 22 25 28 30 31
18 22 21 21 15 10 9 8 8 11 15 15 8 10 13 11 17 14 17 18 11 4 8 16 18 15 13 13 12 9 9 9 10 10 12 13 15 16 17 18 18 18 18 19 20 21 21 20 19 17 16 16 16 15 16 15 14 13 12 12 11 10 9 8 8 11 9 8 8 7 7 7 8 8 9 9 11 11 10 10 10 10 10 9 9 9 11 10 11 12 11 16 21 26 29 30 32
21 22 21 16 19 21 16 13 10 14 14 15 7 14 13 14 13 15 13 7 5 11 9 15 15 15 13 12 9 8 8 9 11 11 12 13 15 16 18 18 18 18 18 19 20 21 20 19 18 17 16 15 15 17 14 14 12 12 11 10 8 10 11 9 9 8 6 6 6 6 6 7 8 8 9 10 10 11 10 10 10 9 9 9 9 9 9 9 10 10 12 17 22 26 27 29 31
20 19 15 21 22 22 14 14 10 10 7 14 9 15 17 19 18 9 6 3 2 5 6 9 12 12 11 11 9 8 8 9 11 12 12 13 15 17 18 17 18 19 20 19 20 20 19 18 17 16 15 15 14 15 13 12 11 10 8 7 7 6 6 5 4 4 4 5 6 6 7 8 8 9 10 11 11 10 10 10 10 9 9 9 8 9 9 9 10 11 15 18 20 21 26 29 31
19 15 19 20 22 20 16 11 7 5 8 13 9 13 13 16 15 9 6 5 4 3 4 5 9 10 9 10 9 9 9 9 11 13 13 13 14 16 17 18 17 18 18 18 19 19 18 18 17 15 15 14 13 12 11 10 8 7 6 6 5 5 4 4 4 3 3 4 4 5 6 7 7 9 11 12 12 11 10 12 9 9 8 8 9 8 9 11 12 11 11 12 16 22 27 28 29
21 21 23 14 13 9 10 9 9 6 7 10 13 16 19 18 17 17 12 5 6 4 3 4 5 7 8 9 8 9 10 11 12 12 13 14 15 16 17 17 18 17 20 19 19 19 18 16 16 16 14 13 12 12 10 9 7 7 7 5 3 3 3 3 3 4 3 2 3 4 5 6 7 9 11 10 9 9 9 9 8 8 8 8 9 8 9 9 9 9 11 15 20 24 25 26 28
20 18 14 18 17 15 9 15 12 14 13 10 14 16 15 16 21 21 21 7 11 7 2 3 5 7 7 8 9 9 10 10 11 13 14 14 15 16 16 15 15 16 17 19 18 17 16 15 15 14 14 11 9 8 7 4 4 4 3 2 1 1 2 1 2 1 1 1 2 4 6 7 8 10 9 9 8 8 9 8 8 8 7 8 8 8 8 9 10 11 12 13 15 19 22 25 28
15 15 13 9 11 17 18 10 13 13 11 13 13 15 16 19 21 21 20 13 11 8 5 5 5 6 7 8 9 9 9 10 12 13 13 14 15 15 15 15 16 16 19 20 18 16 15 15 13 12 10 9 7 6 4 3 3 1 1 -1 -2 -1 -2 -1 -1 -0 0 1 3 6 7 7 9 8 8 8 8 8 8 9 8 8 8 8 8 8 8 9 9 8 8 9 10 11 16 22 25
19 18 17 15 14 9 9 13 11 10 14 12 12 14 18 19 15 19 18 14 12 9 7 6 5 5 6 8 8 9 9 10 12 12 13 14 13 14 14 16 18 17 16 14 15 15 14 12 12 11 10 8 5 3 2 1 0 0 -2 -2 -3 -3 -2 -2 -2 -1 1 3 4 6 7 8 7 7 8 8 8 8 8 8 8 7 8 8 8 8 8 8 7 7 7 8 9 8 11 18 23